Weather in Tanta

Egypt     30°47′11″N   30°59′59″E
temp.,
°C
wind,
m/s
gust,
m/s
humid.,
%
clouds,
%
prec.,
mm/h
press.,
hPa
HPBL,
m
26 june, sun
sun2623:00+22nnw24740 0.0 101182
02:00+21wnw35760 0.0 101197
05:00+20nw23770 0.0 101152
08:00+27nw34440 0.0 1011841
11:00+35nnw45200 0.0 10101816
14:00+38nnw88170 0.0 10082355
17:00+34nnw78240 0.0 10091502
20:00+27nnw38440 0.0 1010189
27 june, mon
mon2723:00+24nw38690 0.0 1011194
02:00+23nw23740 0.0 101064
05:00+22wnw34800 0.0 101081
08:00+29wnw46430 0.0 1010967
11:00+36nw68230 0.0 10092222
14:00+37nw88220 0.0 10082383
17:00+33nw78250 0.0 10081753
20:00+25nw59580 0.0 1010337
28 june, tue
tue2823:00+22wnw37810 0.0 1010222
02:00+21wnw25840 0.0 1008121
05:00+20wnw22870 0.0 100841
08:00+27nw33520 0.0 1008805
11:00+34wnw44250 0.0 10071959
14:00+38nw64190 0.0 10053001
17:00+35nw76270 0.0 10061743
20:00+26nw58620 0.0 1008352
29 june, wed
wed2923:00+23wnw24870 0.0 1009125
02:00+22wnw23900 0.0 100859
05:00+21wnw22920 0.0 100834
08:00+27wnw22560 0.0 1008780
11:00+34w32270 0.0 10071894
14:00+38w33190 0.0 10052964
17:00+34nnw87310 0.0 10061609
20:00+26n47580 0.0 1008366
30 june, thu
thu3023:00+23n23790 0.0 100879
02:00+22nnw11870 0.0 100711
05:00+21nw11920 0.0 100711
08:00+28nw11560 0.0 1008781
11:00+34nw32310 0.0 10071930
14:00+38nw43220 0.0 10053048
17:00+34nnw98260 0.0 10061153
20:00+26n48550 0.0 1008322